Погода в Баклановской

Россия / Ставропольский край     45°27′15″N   41°36′36″E
В апреле 2022 года жителям России запретили посещать сайт meteo.paraplan.net по решению Генеральной прокуратуры. Аудитория сайта уменьшилась в 10 раз. Владельцы сайта не видят смысла в поддержке погодного сервера в таких условиях. Сайт будет закрыт в октябре.
темп.,
°C
ветер,
м/с
пор.,
м/с
влажн.,
%
обл.,
%
осадки,
мм/ч
давл.,
гПа
погр.,
м
25 сентября, вс
вс2500:00+12зюз5127879 1.0 1018735
03:00+11зюз6138030 1.3 1019582
06:00+9зюз512850 0.0 1019345
09:00+14зюз812645 0.0 10201171
12:00+17з913455 0.0 10202198
15:00+18зсз914406 0.0 10202286
18:00+16зсз594857 0.0 1020421
21:00+14з395596 0.0 1021461
26 сентября, пн
пн2600:00+12юз36664 0.0 1022133
03:00+10ююз36835 0.0 1021120
06:00+10ююз35914 0.0 1021103
09:00+15ююз34675 0.0 1021423
12:00+19юз2347100 0.0 10201368
15:00+21сз0141100 0.0 10181416
18:00+18всв22505 0.0 101817
21:00+15в355729 0.0 101770
27 сентября, вт
вт2700:00+14в336229 0.0 101643
03:00+13юв33635 0.0 101440
06:00+13ююв226593 0.0 101323
09:00+18юв2351100 0.0 1013211
12:00+23вюв2339100 0.0 1011539
15:00+25юв4436100 0.0 1010778
18:00+21вюв3555100 0.0 100984
21:00+17юв3766100 0.0 1008129
28 сентября, ср
ср2800:00+17юв3365100 0.0 100751
03:00+16юв3364100 0.0 100640
06:00+16ююв2263100 0.0 100624
09:00+20юз2450100 0.0 1006144
12:00+25з4524100 0.0 1006572
15:00+25зсз3527100 0.0 1006460
18:00+22юз3334100 0.0 100829
21:00+20зюз5104467 0.0 1009257
29 сентября, чт
чт2900:00+18з367787 0.0 1010208
03:00+18зюз3681100 0.0 1011207
06:00+16зюз3488100 0.0 101283
09:00+20зюз336785 0.0 1013488
12:00+24зюз34475 0.0 10121395
15:00+25з334212 0.0 10121737
18:00+23ссв00525 0.0 101311
21:00+21юв22585 0.0 101423